GFSNGP_sfc_thetae_000.txt.gz
Theta_e
289 290 290 289 289 289 287 288 284 286 286 290 292 294 296 297 298 295 292 292 294 293 294 294 290 290 290 290 288 287 286 284 284 284 283 282 279 279 278 278 277 276 275 274
286 288 287 285 288 289 288 288 288 288 287 295 296 297 296 296 297 297 296 295 294 292 291 291 293 293 289 289 287 285 285 284 284 282 281 280 278 278 277 276 275 275 274 273
280 284 283 280 286 287 288 290 289 285 289 289 288 290 294 294 289 289 290 291 290 290 292 291 293 292 289 288 286 283 284 284 282 281 279 278 277 276 275 275 274 273 272 272
279 281 273 284 290 291 288 290 291 286 282 283 281 284 288 289 287 286 287 288 290 290 291 292 293 291 289 284 283 284 284 283 280 279 278 276 275 275 275 274 273 273 271 272
277 276 281 285 283 281 281 281 282 279 280 280 281 281 286 285 285 286 287 288 289 291 291 290 288 287 285 280 280 280 281 281 280 279 277 275 275 275 274 273 273 272 272 271
274 270 270 275 278 281 283 279 281 280 279 279 279 273 276 283 286 287 289 290 290 290 289 289 288 283 280 278 277 278 279 279 278 278 277 275 275 274 274 273 273 272 270 271
270 270 274 277 279 281 272 271 280 280 279 278 276 279 281 284 286 287 287 288 288 288 288 289 286 281 281 276 277 276 276 274 273 274 274 273 273 273 272 272 271 271 269 269
268 262 266 278 276 270 275 280 281 280 279 279 279 280 282 283 282 282 282 284 286 285 286 288 287 281 282 280 277 272 273 272 272 272 273 273 270 270 270 270 269 268 267 267
271 271 278 279 278 280 282 276 277 278 278 277 277 278 278 276 277 278 279 280 282 284 284 286 287 282 280 283 274 271 273 273 272 270 271 271 270 269 268 269 269 267 267 267
269 274 275 277 278 280 280 278 278 277 275 276 274 274 273 274 274 275 277 277 278 278 279 281 284 286 284 284 276 273 273 272 271 270 269 269 269 269 268 268 268 268 268 267
271 275 276 277 277 277 277 277 275 275 274 273 272 272 272 271 272 273 273 273 274 273 273 273 277 281 285 285 276 274 273 271 270 270 268 268 269 269 269 270 271 269 269 269
269 276 275 276 278 277 275 274 273 272 271 272 272 271 271 270 271 271 270 270 269 269 270 271 273 274 276 282 276 275 272 270 269 269 268 268 268 267 274 273 275 276 275 272
275 278 276 277 276 276 272 271 272 271 270 269 269 269 269 268 268 268 267 267 266 266 267 267 267 268 270 273 277 275 274 272 269 269 267 267 266 266 266 272 275 277 276 275
275 272 272 274 272 271 271 270 269 268 267 268 268 267 266 265 265 263 263 264 265 264 263 263 264 265 267 270 274 275 273 273 270 268 267 267 267 267 268 268 269 271 276 274
271 269 269 269 268 268 267 266 264 264 265 265 265 264 263 261 261 261 262 261 261 260 261 261 262 263 267 270 273 275 272 271 269 267 267 267 267 268 268 269 270 270 271 274
265 265 265 262 263 263 263 262 261 262 262 262 261 260 261 260 259 259 259 259 258 258 260 261 263 265 267 268 270 273 273 272 268 267 266 266 267 268 269 269 269 269 269 270
259 259 258 258 259 260 259 261 261 260 260 259 258 259 258 258 257 257 257 258 258 259 260 262 263 265 266 268 269 272 272 270 267 267 266 266 267 267 268 268 268 268 267 267
258 258 258 258 258 258 258 258 258 257 257 258 258 258 257 256 256 256 257 258 259 260 260 260 262 262 264 267 272 271 269 266 266 265 266 266 266 267 266 266 266 263 264 269
256 256 257 258 258 256 256 256 256 257 257 257 257 257 257 257 257 257 258 257 256 257 257 259 264 265 265 268 268 267 266 265 265 265 266 266 265 265 265 264 263 263 265 266
255 256 256 255 255 254 254 256 256 256 257 258 258 257 257 257 257 257 257 255 257 258 260 260 262 262 263 264 265 265 264 264 263 264 264 264 264 263 263 263 263 263 262 259
252 253 253 253 253 254 255 256 257 257 257 258 257 256 256 256 257 257 255 255 258 259 260 261 261 261 262 263 263 263 262 262 262 262 262 261 261 261 261 261 260 260 258 257
251 251 252 252 253 254 256 258 257 257 257 257 256 256 256 256 256 256 257 256 258 260 260 260 261 261 261 262 261 261 260 260 260 260 260 260 259 258 258 258 258 257 256 255
251 251 252 253 253 254 257 257 256 256 256 256 256 256 255 256 256 255 255 259 260 261 260 260 261 261 261 260 259 259 259 258 258 258 258 258 258 258 257 257 256 255 255 254
251 252 252 254 256 256 255 255 256 257 257 257 256 256 256 255 255 256 257 258 258 259 260 260 261 262 259 258 258 258 258 257 257 257 257 257 257 257 256 256 255 255 254 254
250 252 254 256 256 255 255 256 256 256 256 256 255 255 255 256 255 255 256 256 258 257 257 259 260 259 257 257 257 256 256 257 257 257 256 256 256 256 255 255 254 254 254 253
253 255 256 256 256 256 256 256 255 256 256 255 255 256 256 256 256 256 256 256 256 256 255 256 256 256 256 256 256 256 256 256 256 256 256 255 255 255 254 254 254 254 253 252
256 256 256 256 257 257 256 256 255 255 256 255 255 256 256 256 256 256 256 256 255 255 255 255 256 256 256 256 255 255 255 255 255 255 255 255 254 254 254 253 252 252 252 252

GFSNGP_sfc_thetae_003.txt.gz
Theta_e
287 288 288 287 286 288 286 286 282 285 286 290 293 287 284 288 286 285 285 286 286 288 289 290 291 293 293 293 290 286 286 286 286 286 286 285 284 281 281 280 280 279 278 278
282 284 284 283 285 285 285 284 283 284 284 279 280 280 280 281 281 280 282 284 286 287 288 289 290 290 290 290 290 286 287 286 287 286 284 284 284 281 280 279 278 278 277 276
275 280 279 275 280 282 284 284 282 278 275 278 277 277 278 280 280 281 283 284 286 287 288 289 289 288 288 287 287 288 286 287 286 282 282 282 281 280 279 278 277 277 276 276
273 275 266 277 282 283 281 278 278 277 278 277 278 279 280 284 280 282 284 287 287 289 288 288 289 288 287 286 286 284 285 286 281 282 283 280 279 278 278 278 277 276 276 275
264 264 273 277 277 275 275 274 278 276 277 278 279 278 278 281 282 283 285 286 286 286 287 288 287 287 285 284 284 282 281 282 280 280 280 277 278 277 277 277 276 276 275 274
262 265 265 273 277 280 279 272 278 278 277 277 277 270 273 280 282 284 283 282 281 283 284 285 285 287 285 284 284 282 280 279 277 276 275 277 277 276 276 276 275 275 274 274
257 258 265 272 275 277 263 266 275 279 277 275 274 277 279 281 281 281 280 279 280 280 280 282 285 284 284 284 283 283 278 274 272 273 274 276 276 275 274 274 274 273 272 272
255 254 260 276 274 270 272 275 277 277 277 277 278 278 278 279 278 276 276 277 278 278 279 279 279 281 281 281 284 283 279 274 274 271 272 274 275 273 273 273 271 271 270 270
266 265 277 278 276 278 278 277 277 277 278 278 276 275 276 274 274 274 275 275 276 275 273 275 276 276 275 276 279 283 282 280 276 275 273 274 272 271 271 271 270 269 269 269
268 275 275 277 278 278 278 278 279 278 276 275 274 274 273 273 273 273 273 273 274 272 271 270 272 273 273 274 277 276 278 279 277 273 272 272 272 271 271 270 270 270 269 269
271 275 276 277 278 278 278 277 277 275 274 273 273 272 271 271 271 271 271 272 271 270 269 268 269 270 270 271 272 272 274 277 276 273 272 271 271 271 271 272 273 271 271 271
269 276 275 276 278 277 275 275 273 271 271 272 272 270 270 269 270 270 269 269 268 267 266 266 266 266 267 267 268 268 269 272 275 273 271 271 270 269 275 276 276 278 277 274
275 278 278 278 275 274 271 271 271 270 270 268 269 268 268 267 268 267 266 266 265 264 264 263 263 263 264 265 265 265 266 269 274 272 271 269 269 269 268 272 277 277 279 278
275 272 273 274 271 269 270 269 268 267 267 266 266 266 265 264 264 263 263 263 263 262 261 260 260 260 262 262 263 264 265 267 270 274 271 270 269 269 269 269 270 271 277 278
267 268 268 268 268 267 266 265 263 263 264 263 264 262 262 260 260 260 260 260 260 259 258 259 258 259 261 262 263 264 265 267 269 273 271 270 269 269 268 269 270 270 273 277
264 264 263 262 262 263 262 261 260 261 261 261 260 259 259 259 258 258 258 258 257 256 257 258 258 259 261 261 262 263 264 266 268 271 269 268 268 267 268 268 269 271 272 272
259 259 257 257 259 259 259 260 260 259 259 258 257 257 257 257 257 257 257 258 258 258 258 258 258 260 261 261 261 262 264 266 268 271 268 267 267 267 268 269 270 270 271 273
258 258 258 257 257 257 258 258 257 257 256 256 257 257 257 257 257 257 257 258 258 258 258 259 259 260 260 261 262 263 264 267 269 268 267 267 267 268 268 269 270 269 270 273
255 255 256 257 257 256 255 255 255 256 256 257 257 257 258 258 257 256 256 256 256 255 257 259 262 262 261 262 266 266 267 267 266 266 266 267 267 268 268 269 268 268 269 270
254 255 255 254 254 254 253 254 255 255 256 258 257 256 256 255 255 256 256 255 256 257 259 259 260 260 261 262 265 264 264 264 265 265 265 266 265 265 266 265 266 267 265 263
251 252 252 252 252 253 253 254 255 255 257 257 256 255 255 255 255 255 255 255 258 259 260 260 260 260 261 262 262 262 263 263 263 263 263 263 263 263 263 264 264 261 260 259
250 250 251 251 251 251 253 254 256 257 256 256 256 256 255 254 255 255 256 256 258 260 260 260 260 261 260 261 260 260 260 261 261 261 261 261 262 262 261 261 259 259 258 258
249 249 250 251 251 252 254 255 256 256 256 256 256 255 254 254 255 253 252 256 257 258 258 260 262 261 260 259 259 259 259 259 259 259 259 259 259 259 259 258 258 258 257 257
248 249 250 250 251 253 254 256 256 256 257 257 256 255 254 254 254 256 257 257 257 257 257 260 260 262 259 258 258 258 258 258 258 258 258 258 258 258 258 257 257 257 256 256
247 246 248 251 253 255 255 256 256 256 256 256 256 256 255 256 254 255 256 256 257 256 256 258 260 259 257 257 256 256 256 257 257 257 257 257 257 257 256 256 256 255 255 255
250 254 255 255 256 256 256 256 255 256 256 255 256 256 256 257 257 256 256 256 256 255 255 255 256 256 255 255 255 255 255 255 256 256 256 256 256 255 255 255 255 254 254 253
254 255 254 254 255 256 256 256 255 255 256 255 255 256 256 256 256 256 256 255 255 255 255 255 255 255 255 255 255 255 255 255 255 255 255 254 254 254 254 254 254 254 254 254

GFSNGP_sfc_thetae_006.txt.gz
Theta_e
286 288 286 284 283 283 282 284 280 282 283 284 277 278 279 281 281 281 281 283 285 286 287 288 288 288 288 288 287 286 286 286 286 285 284 284 284 284 281 282 282 281 280 280
277 281 281 279 282 281 282 282 282 282 280 277 278 280 279 280 280 280 281 284 286 285 288 286 286 286 286 287 286 286 285 285 286 285 283 282 284 283 280 280 280 280 280 279
273 278 277 272 277 279 280 282 278 275 274 275 276 277 277 279 281 279 280 282 285 283 284 284 285 286 284 285 286 284 284 284 284 283 283 284 281 280 280 279 280 279 279 279
273 272 266 275 279 279 277 277 277 276 274 275 277 277 279 282 279 279 281 283 283 282 281 282 283 283 284 285 284 284 283 283 283 282 281 281 278 279 278 278 278 278 279 278
267 262 270 275 275 274 275 273 276 276 278 278 278 277 275 279 280 280 280 283 281 280 281 281 280 282 282 280 281 283 283 283 282 281 280 279 277 277 278 278 278 279 279 278
262 263 257 271 275 278 278 267 273 274 275 275 275 269 272 278 280 280 282 280 278 278 278 278 279 281 278 277 279 278 280 281 281 279 277 277 276 274 275 278 278 278 277 278
261 257 263 271 274 276 262 265 271 274 275 275 273 274 277 279 278 278 279 277 277 276 275 276 279 277 275 276 276 277 277 277 280 281 278 277 277 273 274 275 274 273 274 275
253 254 257 275 273 268 271 274 274 275 278 277 277 278 278 277 277 277 275 275 276 274 274 275 276 274 274 273 275 275 275 275 277 278 279 277 275 274 273 274 274 271 271 270
264 264 275 277 275 279 277 274 276 277 279 278 277 277 277 275 275 275 275 274 275 272 272 274 273 272 271 272 272 271 272 272 273 274 277 277 275 274 272 273 272 269 270 269
271 274 275 276 278 277 278 278 278 278 278 277 276 275 274 274 274 273 273 272 272 271 270 270 272 271 270 270 270 268 268 268 269 270 273 277 275 275 273 272 272 272 270 270
271 275 276 277 278 279 279 278 276 276 275 274 273 272 272 272 271 271 271 271 271 270 269 269 270 269 268 268 266 265 265 266 266 268 269 273 275 274 273 274 275 273 273 273
269 276 275 276 279 277 276 275 273 272 271 272 272 271 271 269 270 269 269 269 268 267 266 266 266 265 265 265 264 263 262 263 264 266 267 270 273 273 277 278 278 279 279 275
275 278 278 278 275 272 271 270 271 270 269 268 268 268 267 267 267 267 266 265 264 263 263 263 262 262 262 262 261 261 260 261 262 264 265 267 271 270 270 273 279 280 280 280
274 273 275 274 271 269 270 268 267 267 266 266 266 265 265 263 263 262 261 262 261 260 260 259 259 258 260 260 260 259 259 260 261 262 264 266 269 270 270 270 269 273 279 279
267 268 268 267 267 266 266 265 263 263 264 263 263 262 261 260 259 259 259 259 259 258 258 258 258 258 259 259 259 259 259 260 261 262 264 266 267 270 270 270 270 271 273 276
264 264 264 262 263 263 261 261 260 260 261 261 259 259 259 258 257 257 258 259 257 257 258 258 258 259 259 259 259 259 259 260 261 262 263 264 266 269 268 268 269 270 270 272
259 260 257 257 258 259 258 259 260 259 259 257 257 257 256 256 257 258 258 258 257 256 257 257 257 259 259 259 259 259 260 260 261 261 263 265 267 267 268 267 268 269 270 273
258 258 258 257 257 257 257 257 257 256 255 256 256 256 256 256 256 256 255 256 256 256 257 258 259 259 260 261 261 261 261 261 261 261 263 266 267 267 267 267 268 269 270 273
255 255 256 257 257 256 255 255 255 255 255 255 255 255 257 257 256 255 255 255 255 255 257 259 262 261 259 260 263 263 263 264 265 266 266 267 267 267 267 267 268 269 270 271
253 254 254 254 254 253 253 254 253 253 253 254 256 256 256 256 256 255 255 255 256 257 258 259 260 260 260 261 263 262 262 263 263 264 264 264 264 265 266 266 267 268 264 263
250 251 251 252 252 252 252 252 252 251 253 255 256 256 256 256 256 255 255 254 256 257 258 259 259 260 260 260 261 260 261 261 261 262 263 263 263 263 264 263 262 261 260 260
248 248 249 250 250 250 250 250 250 253 255 256 256 257 256 255 255 255 256 255 256 257 258 258 260 260 259 260 259 259 259 260 260 261 261 262 262 261 260 260 259 259 259 259
246 246 249 248 248 249 250 250 252 254 255 256 256 256 255 255 255 254 253 256 257 258 257 258 260 260 259 258 258 258 258 258 258 259 259 259 259 259 258 258 258 258 258 258
242 244 245 246 247 245 247 251 254 256 256 257 257 257 255 254 255 256 257 257 257 257 256 258 259 260 257 256 256 256 256 257 257 258 258 258 258 258 258 258 257 257 257 257
244 244 241 245 246 251 254 256 256 256 256 257 257 257 257 257 255 256 256 256 257 256 255 257 259 258 255 254 254 254 255 255 256 256 256 256 256 256 256 256 256 256 256 256
244 247 251 253 254 255 256 256 255 256 256 255 256 257 257 257 257 257 256 256 255 255 255 255 255 255 255 255 254 254 254 254 254 254 255 255 255 255 255 255 255 254 254 254
251 254 254 254 254 255 255 256 255 255 256 256 255 257 257 256 256 256 256 255 255 255 254 254 255 255 254 254 254 254 254 255 255 254 254 254 254 254 254 254 254 254 254 254

GFSNGP_sfc_thetae_009.txt.gz
Theta_e
285 285 284 281 281 281 279 281 277 280 280 284 276 277 279 280 282 281 280 281 283 285 283 284 283 284 285 285 286 286 285 285 285 285 285 285 285 285 285 283 284 283 283 283
276 281 280 278 279 280 279 280 280 280 280 277 278 279 278 278 281 279 278 280 282 285 282 282 282 282 283 283 284 283 284 284 285 284 283 283 284 284 284 283 282 283 282 282
274 278 276 272 276 278 278 280 278 275 273 273 274 276 276 277 281 279 278 279 280 283 280 280 281 281 280 281 282 280 282 282 283 283 282 281 282 282 282 282 282 281 282 282
273 267 266 275 277 279 277 275 274 273 271 274 277 279 279 280 280 278 279 280 280 282 279 279 280 279 279 281 278 278 279 279 280 279 279 280 280 281 281 281 281 280 281 281
269 267 271 275 276 275 275 272 274 273 275 277 279 277 276 279 279 278 279 280 281 280 279 279 278 279 278 279 277 277 277 277 277 277 276 279 279 279 280 279 279 280 281 281
264 262 256 270 275 277 276 265 272 270 270 272 275 269 273 276 278 279 279 280 280 279 277 277 277 277 277 276 274 275 276 276 276 275 275 277 277 278 279 278 279 279 279 279
269 267 264 271 273 276 262 265 271 272 274 274 273 276 278 278 278 278 278 279 278 276 275 276 276 275 275 274 273 274 274 274 273 273 274 274 275 277 277 277 278 277 277 277
254 256 260 273 273 268 271 274 274 275 276 275 277 279 279 278 278 278 276 277 277 275 275 276 276 274 273 272 274 273 271 271 270 270 271 272 271 273 276 276 275 276 276 276
265 264 274 276 275 278 278 276 277 276 277 277 277 278 278 276 275 275 276 276 276 274 273 274 274 273 271 272 272 271 268 268 268 268 268 269 269 270 273 276 274 275 275 274
271 274 274 277 279 278 278 277 278 277 277 277 276 276 275 274 274 274 274 273 273 271 270 270 271 271 270 270 270 267 265 265 266 265 266 266 268 269 271 274 274 274 274 273
271 274 276 276 278 278 279 278 276 275 275 274 273 272 272 271 271 271 271 270 270 268 268 267 268 267 267 267 265 264 263 264 263 263 263 264 266 267 270 274 275 274 275 275
269 276 275 276 279 277 277 276 272 271 271 272 272 270 270 268 269 268 267 267 265 265 264 263 263 263 263 263 262 261 260 260 261 261 262 262 263 264 270 273 276 280 280 279
276 279 278 279 273 272 272 270 270 269 269 267 268 267 266 265 265 265 263 263 261 261 261 260 260 259 260 260 260 259 258 259 259 260 260 260 261 262 263 268 275 279 280 281
279 274 275 274 271 269 269 268 267 266 266 266 266 264 263 262 262 261 260 260 259 259 258 259 258 258 260 260 259 259 258 259 259 259 259 259 260 262 263 264 266 270 275 277
269 269 268 267 268 266 265 264 262 263 263 262 263 261 260 259 258 258 258 258 258 259 258 258 257 257 258 259 258 258 258 258 259 259 259 260 261 261 263 264 265 269 271 273
265 265 264 264 263 262 261 260 259 260 260 260 259 258 258 257 256 256 257 258 257 255 255 256 256 257 258 259 259 259 259 259 260 260 260 260 260 261 262 263 265 268 269 270
262 260 258 257 259 259 259 259 259 259 258 257 256 256 255 255 255 256 257 259 257 256 257 257 257 259 259 260 260 260 260 260 260 260 260 260 260 261 263 264 267 268 268 271
259 259 258 257 257 257 257 258 257 256 255 256 255 255 254 253 255 256 258 257 257 257 258 258 258 258 260 260 260 261 261 261 261 262 262 261 261 263 264 266 268 267 268 270
256 255 256 257 257 255 255 254 254 255 255 254 253 252 254 255 257 257 257 256 256 255 257 257 260 259 259 261 262 261 260 261 262 263 265 265 263 265 267 267 267 268 269 270
254 254 253 253 253 252 252 253 253 252 251 250 249 252 254 256 257 256 256 255 256 257 258 257 258 258 260 260 261 260 260 260 261 262 264 264 265 265 266 267 266 263 263 262
249 250 251 251 251 251 251 251 250 249 250 249 251 253 254 257 257 256 255 255 257 258 258 258 257 259 259 259 259 259 259 259 260 260 261 262 261 261 261 261 261 261 260 260
246 246 248 249 248 248 248 247 247 248 249 250 254 255 256 256 255 255 256 255 256 257 258 256 257 259 258 258 257 257 257 258 258 259 259 259 259 259 259 259 259 259 259 259
244 244 247 246 247 247 246 247 247 247 250 253 255 256 256 256 256 254 253 256 256 256 256 256 258 259 257 255 255 255 255 255 256 257 257 258 258 258 258 258 258 259 259 258
241 241 242 244 241 241 244 248 247 250 254 256 257 257 256 255 255 256 257 257 256 256 255 256 258 261 256 254 253 254 254 255 255 256 256 256 256 256 257 257 257 258 258 257
240 241 240 242 244 247 247 250 254 255 256 257 257 257 257 257 256 256 257 256 257 256 255 256 259 257 254 254 254 254 253 253 254 254 255 255 256 256 256 256 256 257 257 257
242 244 245 245 249 253 254 256 255 256 256 256 256 257 257 257 257 257 257 256 255 255 254 254 254 253 253 253 253 253 254 254 254 254 254 253 253 253 253 254 254 254 254 254
244 250 249 252 254 254 254 255 255 255 256 256 255 256 256 256 256 256 255 254 254 254 253 253 253 253 253 253 253 253 253 253 254 253 252 252 253 253 253 253 253 254 254 254

GFSNGP_sfc_thetae_015.txt.gz
Theta_e
285 286 286 285 284 285 283 285 280 283 283 287 289 290 287 286 284 284 283 282 283 283 284 285 286 285 285 285 285 285 284 284 283 284 284 284 283 282 283 284 284 285 284 285
279 283 283 281 283 284 284 285 284 284 282 289 285 284 283 282 282 282 284 282 283 283 284 284 285 285 285 284 285 285 283 283 283 282 282 282 281 281 281 282 283 283 283 283
274 280 279 275 279 281 283 285 283 279 282 281 282 281 282 282 281 281 282 283 282 283 284 284 284 285 285 284 284 283 282 282 282 281 281 281 280 279 279 279 281 280 281 282
274 275 267 278 284 283 281 281 283 282 279 280 279 281 282 283 283 282 283 283 283 284 284 285 285 285 284 283 282 281 281 280 281 281 279 280 279 278 277 278 278 279 279 280
271 271 275 278 280 279 278 277 283 281 278 279 280 280 280 284 284 283 283 284 285 285 285 284 284 284 282 280 280 279 279 279 279 279 278 278 276 276 276 276 276 276 278 278
274 269 266 275 280 281 280 272 281 280 278 278 279 273 277 283 284 284 284 285 285 285 284 283 283 282 279 278 277 277 277 278 278 277 276 276 276 275 276 275 275 275 275 276
272 270 273 282 280 281 270 274 281 281 280 280 277 279 282 284 283 284 285 285 284 283 281 281 280 278 276 275 274 275 275 275 274 274 274 274 273 274 273 272 272 271 272 273
271 268 266 280 278 274 279 282 282 281 281 281 281 282 282 283 283 283 283 282 281 278 278 277 276 275 272 272 273 272 270 269 268 268 269 269 268 269 269 269 268 268 269 270
274 273 280 281 280 283 284 282 282 282 283 282 281 281 282 281 282 281 280 278 276 274 273 273 272 271 269 269 269 267 265 264 264 264 264 265 265 265 265 266 266 266 267 267
275 277 279 281 283 283 284 283 283 284 283 282 281 281 280 280 278 277 276 274 273 271 269 268 269 269 267 267 266 263 262 262 262 262 262 263 264 264 263 263 263 264 264 265
275 278 280 281 282 282 283 283 283 283 282 281 280 278 277 276 274 273 272 271 270 268 266 266 267 266 265 264 263 261 261 261 261 262 262 262 263 263 263 263 264 262 263 264
274 279 279 280 283 284 282 282 282 281 278 276 274 274 273 271 271 270 269 268 266 265 265 264 264 263 263 263 262 260 260 260 260 260 261 261 261 262 266 267 269 269 270 269
279 282 282 283 283 284 282 281 279 276 275 274 272 270 269 268 268 267 265 265 264 263 263 262 261 261 262 262 261 259 258 259 259 260 260 260 260 260 259 263 267 268 269 270
283 282 280 281 280 281 277 275 272 271 270 270 269 267 266 264 264 263 263 263 263 261 260 260 260 260 262 262 261 259 259 259 260 260 260 261 261 261 261 260 260 261 265 267
282 283 281 279 276 273 272 270 268 268 268 267 266 264 263 262 261 262 262 260 260 259 259 260 260 260 262 261 260 259 259 259 260 261 262 262 262 262 262 262 262 262 263 265
279 272 271 271 273 271 268 267 267 267 266 265 263 262 262 261 260 259 259 259 257 258 258 259 260 261 261 260 259 260 260 260 261 261 262 262 263 263 263 263 263 262 262 263
270 269 266 267 268 268 265 265 265 264 263 261 260 260 258 257 256 256 256 257 258 258 259 260 260 260 259 260 259 259 260 261 261 261 261 262 263 263 265 266 265 263 263 265
266 266 264 264 266 265 263 262 262 261 259 260 259 258 256 254 254 255 256 257 258 258 260 261 259 259 259 258 259 260 260 260 260 260 262 262 263 264 264 264 265 265 266 268
262 261 261 262 261 260 259 259 259 259 258 258 256 255 255 255 255 255 256 256 257 258 261 259 262 259 258 259 261 258 259 259 259 260 261 262 262 263 263 263 263 263 264 263
258 258 258 257 257 256 256 257 256 256 256 254 252 251 252 253 253 254 256 256 258 259 259 258 258 258 259 259 259 259 259 258 258 259 260 260 261 261 261 261 262 261 262 262
256 255 255 255 255 255 255 254 253 253 254 253 252 252 252 253 254 254 256 258 261 260 258 258 259 259 260 258 259 259 258 258 258 258 258 259 259 260 260 260 260 260 260 260
254 253 254 253 253 253 253 252 252 251 251 251 251 251 251 252 255 257 259 258 260 260 258 259 259 259 258 257 259 259 258 258 257 258 258 258 258 258 259 259 259 259 260 260
252 252 253 252 251 252 250 250 251 252 251 252 252 253 255 258 259 258 258 260 260 259 259 258 258 260 258 258 258 258 258 257 257 257 257 257 257 258 258 259 260 260 260 260
251 250 251 251 248 249 250 255 253 255 252 253 253 255 257 258 259 261 261 260 260 259 258 258 259 261 257 257 257 257 257 257 256 256 257 257 257 257 257 257 257 259 259 259
249 249 249 248 252 255 253 255 255 256 256 258 259 259 259 260 258 259 260 259 259 258 257 259 260 259 257 257 256 256 256 256 256 256 256 255 255 256 256 256 256 257 257 257
252 254 254 252 253 254 256 256 256 257 258 257 259 259 259 259 259 259 259 258 258 257 257 257 256 256 256 256 256 256 256 256 255 255 255 255 255 255 255 255 255 256 256 256
252 252 255 255 256 256 256 256 256 256 257 256 256 258 258 258 258 257 257 257 256 256 256 255 255 255 254 254 255 255 255 255 254 253 253 254 253 253 254 254 255 255 255 255

GFSNGP_sfc_thetae_021.txt.gz
Theta_e
282 283 282 281 280 281 279 280 276 278 278 282 284 280 279 279 284 284 283 280 280 279 279 279 279 280 281 281 281 280 279 279 279 279 279 279 278 278 278 278 279 278 278 279
273 281 280 278 279 279 279 279 278 278 277 284 278 279 280 279 280 279 279 280 279 279 280 280 280 280 281 280 280 280 278 278 278 278 279 278 279 279 279 278 278 278 277 277
267 277 274 267 275 277 278 279 277 274 277 275 277 279 277 277 278 278 278 279 279 279 280 280 280 280 279 279 278 276 275 275 276 276 277 277 277 277 276 276 276 275 276 276
263 264 258 274 277 278 277 277 275 275 272 274 276 276 278 278 277 278 279 280 280 279 279 279 280 278 278 278 276 276 274 273 273 275 273 274 273 273 273 273 272 273 273 274
264 258 268 274 276 275 274 272 275 274 275 276 277 275 274 278 279 278 279 279 279 279 280 278 276 276 276 275 275 274 273 273 273 271 269 269 268 268 269 269 268 268 270 270
258 261 259 270 277 279 277 268 272 271 273 273 275 268 271 278 280 280 280 280 279 279 277 276 274 274 273 272 271 270 271 271 270 269 266 266 266 265 265 265 266 266 266 266
269 262 265 273 275 278 264 268 270 273 274 275 273 274 277 279 279 280 279 279 277 276 275 273 273 272 270 270 268 269 269 268 266 266 264 263 263 264 263 262 263 262 263 263
259 255 261 276 274 271 274 277 277 277 277 277 278 278 278 278 278 278 278 276 275 274 273 272 272 269 268 267 269 266 265 264 263 262 262 263 261 261 261 261 260 260 260 261
269 267 276 277 276 279 279 276 278 277 278 278 278 277 278 277 277 278 277 275 273 270 270 270 267 267 265 266 265 264 259 258 259 260 261 261 260 259 260 260 260 260 261 260
270 274 275 277 278 279 279 279 279 279 279 278 277 277 277 277 277 275 273 271 269 266 264 263 264 266 263 263 263 256 255 259 261 260 259 260 260 260 259 259 259 259 260 260
271 276 276 277 278 279 278 279 278 278 278 278 277 277 277 276 274 273 271 269 267 265 264 263 264 262 260 262 258 257 258 260 260 260 259 259 260 259 260 262 263 263 264 265
272 278 277 278 279 279 279 279 279 278 277 277 277 277 275 272 271 270 268 267 265 263 262 260 258 258 258 255 254 255 258 260 259 259 259 259 259 259 264 267 268 270 271 270
277 280 280 280 280 279 278 278 278 278 277 277 274 272 271 269 268 267 265 264 264 262 261 257 256 257 256 255 252 253 257 258 259 259 258 258 258 258 258 262 267 268 269 270
280 279 278 279 278 279 278 278 275 272 271 272 270 266 266 265 264 263 263 263 260 259 256 253 253 254 256 254 252 252 254 258 258 258 258 258 258 259 259 259 259 261 266 268
279 280 280 279 276 274 273 270 267 269 268 266 265 264 263 262 261 262 262 259 257 254 255 253 252 254 254 253 253 252 256 258 257 257 258 259 259 259 259 260 260 260 262 265
279 273 271 274 274 270 269 267 268 267 266 264 262 262 262 261 259 258 258 256 252 252 253 252 253 254 253 250 251 253 256 257 259 257 257 257 258 258 259 259 260 260 260 260
268 268 263 265 268 268 267 266 265 265 264 262 260 259 256 254 254 256 256 254 253 253 253 251 253 253 250 251 251 255 256 257 256 255 255 256 257 257 258 258 259 259 259 261
268 266 266 266 266 265 263 262 262 261 258 258 257 256 253 251 252 251 251 249 248 249 251 252 251 250 249 249 251 256 254 254 255 254 255 256 256 257 257 258 258 258 259 260
261 262 263 263 262 262 261 259 257 257 256 255 253 251 250 250 249 247 245 244 246 246 252 247 257 252 249 251 258 255 254 254 254 253 254 255 255 255 256 257 258 259 259 259
257 258 257 256 255 255 254 253 252 251 249 249 246 246 246 246 244 244 243 244 248 252 249 248 248 248 250 253 258 254 252 251 252 251 252 254 253 254 255 256 257 258 258 258
254 254 254 254 253 251 251 250 249 249 248 246 246 246 246 246 243 242 242 245 250 249 249 252 250 252 254 258 258 253 250 250 249 249 249 251 252 253 254 255 256 256 256 257
250 251 252 251 250 248 245 245 246 246 246 244 244 243 242 246 243 244 247 250 251 255 254 255 256 256 259 259 256 252 251 250 248 247 247 248 248 251 252 253 253 254 255 255
248 248 250 249 248 246 242 243 244 244 245 244 245 245 246 250 249 250 252 252 254 257 258 256 258 261 261 257 255 251 250 249 248 248 248 247 248 248 250 251 252 252 253 254
244 245 244 242 241 243 246 245 243 243 244 244 245 247 249 249 249 254 257 259 259 258 257 257 259 262 258 255 252 252 250 248 247 245 247 250 247 249 248 249 250 252 252 253
247 245 241 243 244 246 245 244 244 245 245 245 246 249 250 254 255 255 256 257 260 258 257 258 260 259 255 251 251 250 249 247 245 244 245 244 245 245 246 247 248 250 251 251
244 248 246 244 245 245 245 245 246 245 245 246 247 253 254 256 257 258 258 258 258 257 257 257 256 255 253 252 251 250 250 249 249 247 246 245 244 245 246 247 247 248 249 249
247 247 245 245 245 244 244 245 245 246 246 247 252 254 255 255 256 257 257 256 256 256 256 255 254 254 253 251 251 251 250 249 250 249 245 245 245 244 245 246 246 246 248 249

GFSNGP_sfc_thetae_024.txt.gz
Theta_e
282 284 284 282 281 280 280 279 276 278 277 281 281 281 282 282 281 284 284 280 279 279 278 278 278 279 280 280 280 280 279 278 278 278 278 277 277 277 277 278 277 277 277 277
274 280 281 278 280 280 280 280 279 280 279 285 282 279 278 278 280 283 281 281 279 279 279 279 278 279 279 279 279 279 277 276 277 276 276 276 276 276 276 275 274 274 274 274
270 275 274 267 273 278 279 279 278 274 277 276 278 279 278 278 278 277 277 278 279 278 279 279 278 279 278 278 277 275 274 273 273 274 273 274 273 272 272 271 271 271 271 271
266 264 259 274 276 277 276 277 276 276 273 275 278 278 278 277 277 278 278 279 278 278 278 278 278 277 277 276 275 274 272 270 271 272 270 270 270 269 269 269 268 268 268 268
266 260 269 274 276 275 275 273 274 274 273 277 277 275 274 277 278 278 278 279 279 278 278 277 276 275 275 274 274 273 272 272 270 269 266 267 265 266 266 266 265 265 266 265
260 259 260 271 276 278 276 267 270 272 273 274 274 268 272 277 279 279 279 279 279 279 277 275 274 274 273 272 270 269 270 270 269 267 263 264 264 264 264 263 264 265 264 264
269 260 264 273 274 277 265 269 270 272 275 274 272 275 277 278 278 279 279 279 278 277 275 274 273 272 270 269 268 268 268 267 265 265 263 263 262 263 262 261 262 261 261 262
262 263 261 275 275 271 275 276 276 277 277 276 278 278 278 278 278 278 278 278 277 274 273 272 271 269 268 267 268 265 264 263 262 260 261 262 259 260 260 259 259 259 260 261
269 268 277 277 277 280 278 276 278 277 278 278 278 277 278 278 277 278 278 276 275 272 271 270 268 267 265 265 264 263 258 256 256 258 260 261 259 259 258 259 258 259 259 259
270 273 275 277 280 278 279 279 279 279 279 278 278 278 278 277 277 276 275 273 269 267 266 266 266 267 263 262 262 254 251 256 259 258 259 259 260 260 259 258 258 259 259 260
270 275 275 276 277 278 279 279 278 278 278 278 278 277 276 276 276 275 272 270 268 266 266 265 265 264 261 261 257 255 255 258 258 258 257 259 260 259 260 262 263 263 264 266
271 278 276 277 279 279 278 279 278 278 277 277 277 277 276 275 274 272 270 267 265 264 263 262 261 261 260 256 253 252 256 258 258 259 259 259 259 259 264 267 268 270 271 270
277 280 279 280 281 280 279 279 278 278 278 277 276 275 273 272 270 268 266 265 263 263 262 260 259 259 255 254 252 251 252 257 257 258 258 257 258 257 257 261 266 267 268 270
279 279 277 279 278 279 279 279 276 274 273 274 274 267 267 267 265 264 263 262 260 260 259 256 256 256 255 251 249 249 250 255 255 256 256 257 257 258 258 257 257 259 264 267
279 279 280 281 276 277 274 272 270 271 269 266 266 266 265 263 262 263 261 259 258 254 256 256 255 256 254 251 251 249 252 254 253 256 257 257 257 257 257 258 258 258 260 262
278 273 272 274 277 274 271 267 270 269 267 265 264 263 263 261 260 257 256 253 253 252 253 253 254 254 251 249 249 248 250 254 256 253 255 255 256 256 256 257 257 257 258 259
271 272 264 265 270 269 268 267 268 267 266 264 261 259 257 255 253 251 251 249 249 251 252 251 253 253 249 248 249 250 249 251 254 253 252 253 254 255 256 256 256 257 258 260
271 269 268 269 269 267 265 263 263 261 258 259 258 256 254 252 251 250 248 245 246 248 249 251 250 250 247 247 247 249 248 248 249 252 254 253 253 254 254 255 255 256 257 259
263 265 264 265 263 263 261 259 257 257 256 256 255 254 251 249 248 247 243 243 244 244 251 247 255 250 247 248 252 250 249 249 252 253 253 252 252 251 251 253 254 254 256 256
258 259 258 257 256 255 255 254 253 252 248 249 247 246 246 245 243 242 241 244 248 251 247 246 246 247 248 248 255 249 249 251 254 254 250 250 250 250 251 252 252 253 252 254
256 256 255 254 253 252 251 250 251 250 247 246 247 246 245 245 241 240 242 244 250 246 247 250 248 250 249 251 253 251 252 254 254 252 248 248 247 247 249 248 248 250 252 252
251 252 253 252 251 248 244 244 246 246 246 244 243 243 242 245 242 242 245 248 251 251 250 252 254 254 255 259 256 254 254 254 253 250 248 246 244 245 247 248 248 250 251 251
249 250 250 249 249 246 242 242 244 244 245 244 247 247 248 249 248 247 249 249 251 252 255 256 257 260 260 256 255 255 254 253 252 251 249 247 246 244 246 247 248 249 249 250
249 249 246 242 242 244 246 245 243 243 243 243 243 245 247 247 247 249 253 255 258 259 257 256 258 263 257 255 255 255 254 252 251 249 248 249 244 244 244 246 247 248 248 249
249 247 244 243 246 246 244 244 244 243 243 243 243 246 247 251 251 250 251 252 259 258 257 259 261 260 255 255 254 253 252 250 249 247 247 243 244 243 243 244 245 246 247 248
247 249 247 247 248 249 248 246 246 244 243 245 244 246 248 251 251 252 254 257 257 257 257 257 256 256 255 255 253 252 252 251 252 250 247 246 244 245 245 246 246 247 246 246
248 249 249 249 249 247 243 244 244 245 244 242 245 247 251 249 251 255 256 256 256 256 256 256 255 255 254 253 253 252 252 251 251 250 246 245 245 245 246 246 246 246 247 247

GFSNGP_sfc_thetae_027.txt.gz
Theta_e
283 282 283 281 280 280 279 281 279 281 280 282 284 283 283 285 284 283 283 280 280 281 279 277 277 278 278 278 278 278 278 278 277 277 276 276 275 275 274 274 274 273 273 273
279 281 282 281 282 283 283 282 280 280 280 284 282 281 279 280 280 282 283 282 280 279 279 278 278 278 278 278 279 278 276 275 275 275 275 274 273 272 272 272 271 271 271 270
278 276 276 273 275 279 281 281 281 277 281 276 279 279 279 279 279 279 280 282 280 279 279 279 278 279 277 277 277 274 273 271 271 272 271 271 270 270 270 269 269 268 268 268
271 271 268 277 275 277 277 278 277 276 273 276 278 278 279 278 278 278 278 278 278 278 278 278 278 277 277 276 274 273 271 270 270 270 268 268 268 267 267 267 266 266 266 266
272 264 271 275 276 274 274 273 276 277 276 277 277 274 274 277 277 277 277 278 279 279 278 277 277 276 275 274 273 272 271 271 270 268 265 266 263 264 265 265 264 264 265 264
265 264 264 273 276 277 277 268 272 274 273 274 274 269 274 277 278 278 278 279 279 278 277 276 275 275 273 272 270 269 271 270 268 267 262 262 263 263 263 262 264 264 264 263
269 269 268 272 274 277 266 271 270 272 275 274 272 276 277 277 277 279 279 279 278 277 276 275 273 272 271 270 268 269 268 267 265 265 262 261 261 262 261 260 262 260 261 261
265 264 264 276 275 272 275 275 275 275 277 276 277 278 277 277 278 278 278 278 279 276 274 272 272 270 269 268 268 266 265 263 262 258 259 261 255 258 258 258 258 258 258 259
271 270 276 277 277 279 278 276 277 277 278 278 278 277 278 277 277 278 278 277 277 274 272 271 269 268 267 267 266 263 261 256 254 257 259 259 255 258 258 256 256 258 259 259
271 274 274 277 278 278 279 278 279 279 279 278 278 277 277 277 277 277 276 274 272 270 269 267 265 267 265 265 264 258 258 256 258 256 257 257 260 260 258 257 257 259 259 259
270 274 275 276 277 279 279 278 278 278 278 278 278 277 276 277 276 276 275 271 270 270 269 266 265 264 262 263 260 257 258 259 257 256 256 257 259 259 260 261 262 263 265 266
269 277 276 277 278 279 278 278 278 277 277 277 277 278 278 276 277 275 272 269 268 266 265 263 262 261 261 258 257 257 258 259 257 257 257 258 258 258 263 267 269 270 271 270
276 279 279 279 279 279 278 278 278 277 278 277 277 276 275 275 272 270 267 266 266 264 262 260 259 260 260 256 255 253 255 257 256 257 257 256 256 256 255 260 266 266 268 269
280 279 277 278 278 279 278 278 276 275 275 275 276 269 270 270 265 265 264 263 262 261 258 256 256 257 259 252 252 253 254 255 253 255 254 253 254 255 256 255 255 257 262 265
278 279 280 279 275 276 275 272 271 272 272 269 266 267 266 266 265 265 262 260 259 256 253 254 253 257 255 252 253 252 253 255 255 252 253 255 255 255 255 256 256 256 257 261
276 275 275 274 277 274 272 268 270 273 267 265 264 264 264 264 262 258 256 254 254 254 254 254 256 257 252 251 252 250 251 253 254 251 251 251 254 253 255 255 255 255 256 257
271 271 263 266 271 272 271 271 271 267 265 264 262 260 259 256 253 251 250 248 250 252 251 251 254 252 249 250 250 251 249 248 252 250 248 249 250 251 254 253 254 254 255 258
276 277 272 272 272 271 266 264 264 262 260 260 258 256 254 252 252 250 248 244 245 248 250 251 251 248 246 246 248 249 249 248 246 246 249 250 250 254 254 252 252 253 255 256
270 271 266 267 264 265 263 260 258 258 257 256 255 253 252 250 249 246 242 243 243 244 251 246 254 252 247 249 249 249 249 247 247 247 248 250 252 252 251 250 250 251 252 253
260 261 260 258 257 256 256 255 254 252 249 251 249 247 247 244 242 242 240 244 247 250 247 245 244 245 248 249 255 249 247 248 249 248 249 251 252 253 251 251 250 250 248 249
258 257 256 255 253 253 252 251 252 250 246 248 249 246 245 242 240 240 242 244 250 245 245 248 246 249 250 250 250 247 245 247 248 249 249 252 252 250 250 246 246 248 249 247
252 253 253 253 252 248 244 245 248 248 247 246 244 243 243 245 243 242 245 248 249 250 249 249 252 254 255 257 257 255 252 250 250 250 252 252 250 249 249 247 247 248 248 248
252 253 253 251 251 248 242 246 246 246 247 244 245 244 247 249 248 247 248 247 247 249 251 253 256 259 260 259 255 254 254 254 254 254 254 252 250 248 247 247 248 247 247 247
250 252 251 249 249 251 251 246 244 244 243 243 244 247 248 247 246 247 250 251 252 253 252 253 258 263 258 255 254 254 254 254 254 254 253 252 249 247 246 246 246 246 246 246
251 250 250 251 252 249 248 244 246 245 246 250 245 245 245 248 249 248 250 251 253 254 253 258 261 261 256 255 254 254 253 253 253 251 250 249 249 247 245 244 245 245 245 247
251 250 250 250 250 249 249 251 252 247 247 246 244 244 245 246 249 253 250 252 252 255 256 256 257 256 256 256 255 254 254 254 253 252 251 250 249 248 246 247 246 247 247 246
250 251 250 251 250 249 247 247 248 246 243 241 244 245 245 247 250 252 252 253 254 255 256 256 256 256 255 254 254 254 253 253 253 252 250 250 249 247 247 247 246 246 247 247

GFSNGP_sfc_thetae_030.txt.gz
Theta_e
283 282 283 283 282 281 281 283 282 283 281 282 285 285 285 284 284 283 283 282 280 280 279 279 278 278 278 277 277 278 277 277 277 276 275 275 274 273 272 272 272 272 271 271
278 281 282 280 282 281 283 281 280 279 279 284 283 284 282 283 283 281 281 283 282 281 281 280 278 278 278 277 277 277 277 276 275 274 274 272 272 271 271 271 270 270 269 269
279 277 277 277 279 281 281 282 283 278 284 278 279 280 280 280 279 280 281 283 283 280 280 280 279 279 277 277 277 275 274 271 271 271 271 270 270 269 269 268 268 267 267 267
273 274 271 277 275 279 283 282 282 278 276 277 278 278 280 279 279 279 279 280 282 280 278 278 278 277 277 277 275 274 272 270 270 270 268 268 267 266 266 266 266 265 265 265
272 271 274 277 275 274 275 275 276 278 279 277 277 275 275 278 279 279 278 278 278 278 278 276 277 277 276 274 274 273 271 271 269 268 265 266 263 264 264 264 264 263 265 263
270 270 269 272 276 278 277 270 274 275 275 273 275 269 273 277 277 277 278 278 278 278 278 276 276 276 274 273 271 270 271 271 269 267 262 262 264 262 262 261 264 264 264 263
272 272 272 274 275 277 269 274 270 273 275 274 273 275 277 278 277 278 278 278 278 277 277 276 275 273 272 271 270 269 269 267 266 265 262 261 260 261 259 259 261 259 260 261
272 270 269 276 276 274 276 276 277 276 276 276 277 278 277 278 278 277 278 278 278 277 276 275 273 273 271 270 269 267 265 265 264 262 260 262 254 256 255 256 255 256 257 259
275 274 276 278 278 279 279 277 277 277 277 278 277 277 277 277 276 277 277 277 277 276 275 272 271 271 270 268 266 264 262 262 259 259 261 261 256 257 256 254 254 257 259 259
273 274 275 277 279 278 279 279 279 279 278 278 277 277 277 276 276 276 276 275 273 270 270 269 267 269 266 265 264 260 257 260 261 260 260 260 261 260 255 255 256 258 258 259
271 274 275 277 278 279 279 279 278 277 278 278 277 277 276 276 276 275 275 273 270 271 272 271 267 265 263 263 261 258 258 260 261 260 259 259 259 259 259 260 260 258 261 265
270 277 277 277 279 279 278 278 278 277 276 276 276 277 276 275 276 275 275 270 269 269 269 266 265 263 260 259 259 258 259 261 261 260 259 259 259 258 263 267 269 271 272 270
276 279 279 280 279 278 278 278 278 276 277 277 276 276 274 275 273 272 268 267 268 266 264 262 262 261 258 256 256 256 256 260 259 259 258 258 257 256 255 259 265 266 268 269
279 278 277 278 278 278 278 278 276 274 274 275 275 270 270 269 265 265 264 263 263 264 262 261 258 258 257 255 254 255 256 259 257 257 256 255 255 255 255 254 253 255 261 264
278 279 281 277 276 276 274 272 271 272 272 269 266 267 266 265 264 264 262 262 263 262 259 257 255 257 254 253 255 255 256 256 256 256 255 255 255 255 254 254 254 254 256 259
275 275 275 275 277 273 271 268 270 272 268 266 265 263 264 263 262 259 257 256 257 256 253 252 254 255 252 253 255 254 255 257 255 252 252 251 253 253 253 253 253 252 254 255
270 269 264 267 272 272 272 272 273 271 267 266 264 261 259 257 254 252 248 248 249 249 249 250 253 251 248 251 252 254 252 250 252 249 249 249 249 250 252 251 251 252 254 256
277 277 273 272 272 272 270 269 265 264 261 261 259 257 255 253 253 249 246 244 247 249 248 250 250 248 247 246 247 249 248 250 248 249 249 249 249 251 251 251 251 253 255 255
271 274 268 269 265 266 264 262 259 259 258 257 256 254 253 251 250 245 242 244 244 245 250 245 256 251 245 246 250 251 250 249 247 246 247 249 248 248 249 250 252 253 252 252
261 262 262 259 258 257 257 256 255 253 251 253 251 251 248 244 242 243 240 245 246 249 246 245 244 245 247 247 253 250 249 249 249 248 246 248 249 249 250 253 253 252 248 248
257 258 257 256 254 253 253 253 253 252 249 250 252 250 248 242 241 242 243 246 248 245 244 247 244 247 248 251 251 246 245 246 247 249 249 251 250 251 253 252 252 250 250 248
252 254 254 253 252 249 248 248 250 250 249 248 247 247 248 246 245 242 244 248 248 250 247 247 247 249 250 255 255 254 254 252 253 252 251 251 252 253 253 253 251 250 249 248
251 252 253 252 251 248 245 247 248 250 249 249 250 249 250 251 250 249 250 247 245 247 250 251 252 256 259 258 257 255 255 254 254 254 254 254 254 254 253 251 250 249 248 247
249 250 248 248 249 249 249 246 249 248 249 247 246 246 249 249 247 246 248 249 250 251 251 252 254 262 259 253 255 255 255 255 255 255 254 255 254 253 250 249 248 249 247 247
246 247 249 248 252 251 252 251 251 249 250 248 247 246 246 248 248 247 245 249 252 253 251 253 260 260 252 254 254 255 255 255 254 254 253 253 252 250 249 248 248 247 247 247
252 252 252 253 253 252 252 252 252 251 251 251 250 245 244 244 247 248 248 250 250 252 251 251 252 254 254 255 255 255 255 255 254 254 254 253 251 251 249 249 248 248 247 247
249 250 249 249 249 251 251 252 251 251 248 245 246 245 244 245 246 249 250 250 251 251 251 251 253 255 254 253 253 253 253 253 254 253 252 252 251 250 250 250 249 248 247 247

GFSNGP_sfc_thetae_033.txt.gz
Theta_e
284 284 284 284 283 282 283 285 282 285 283 285 285 285 285 285 284 283 284 283 283 283 281 280 279 279 280 280 280 280 279 279 279 279 277 276 275 274 273 273 272 272 272 271
281 282 282 281 283 283 284 284 284 283 282 286 287 285 284 284 284 283 283 284 284 283 282 280 280 280 280 279 279 279 279 279 278 277 275 274 273 272 272 271 270 270 270 269
283 279 281 280 281 282 282 282 285 280 287 281 282 283 283 283 284 283 282 282 283 283 282 282 280 281 280 279 278 277 276 275 274 274 273 272 271 270 270 269 269 268 268 268
272 277 274 278 275 281 283 283 281 279 276 281 283 281 282 281 281 280 281 282 283 284 282 281 281 279 279 278 277 276 275 273 272 272 270 269 269 268 268 267 267 266 266 266
274 274 278 276 275 278 280 279 280 283 281 278 278 277 277 279 280 281 280 281 281 282 282 279 279 279 277 276 276 275 274 273 272 271 268 268 266 266 266 266 265 264 266 265
273 273 272 276 276 277 279 274 274 281 278 274 275 272 275 278 279 279 279 279 279 279 278 277 277 277 275 274 273 274 274 273 271 269 265 265 266 265 265 264 265 265 264 264
275 274 276 278 276 278 274 278 276 275 276 276 275 277 278 278 277 278 279 278 278 278 278 278 276 274 274 273 273 273 271 270 268 267 265 264 263 264 262 261 263 260 261 262
275 273 273 277 276 276 280 277 278 277 277 277 278 278 278 278 278 278 278 278 279 277 277 277 275 274 273 272 272 270 268 267 265 263 265 263 259 260 259 259 259 258 258 260
278 277 277 279 279 280 280 279 278 278 278 278 277 277 278 278 277 277 277 277 277 276 276 275 273 273 273 272 269 267 265 263 261 261 262 261 258 259 261 259 258 259 261 261
275 275 275 278 279 279 279 279 279 279 278 277 277 277 277 277 277 276 275 275 274 272 272 273 270 271 273 268 267 263 261 261 261 260 261 260 263 262 260 259 259 259 259 260
272 274 276 277 278 279 279 279 278 278 278 278 277 276 276 276 275 275 275 273 271 273 273 274 269 268 266 266 264 262 261 262 261 260 260 261 262 262 262 262 261 257 259 261
272 277 277 278 280 280 279 279 278 277 276 276 277 277 276 275 275 274 273 270 270 271 270 269 265 264 263 262 263 262 261 261 261 261 261 261 261 261 265 268 269 271 272 272
277 279 279 279 279 279 279 278 278 277 277 276 276 275 273 274 272 272 269 268 269 270 267 264 263 263 262 261 261 261 259 261 261 261 261 260 259 258 258 260 265 267 269 271
279 278 276 278 278 279 278 278 276 274 274 275 274 270 270 270 266 266 266 265 263 262 260 259 260 261 261 259 257 256 256 259 259 259 259 258 258 258 257 255 255 256 261 264
278 279 279 278 276 275 274 272 271 273 272 270 267 269 267 266 264 264 261 260 261 259 257 258 257 255 253 254 255 253 255 256 257 256 256 257 257 257 256 255 255 254 255 259
276 276 274 274 275 272 271 268 271 273 270 268 267 265 265 264 261 257 256 254 258 257 253 253 253 253 251 252 252 251 252 257 257 255 255 255 255 255 255 254 254 254 254 255
270 270 265 268 272 272 272 273 274 273 268 268 267 262 260 257 254 252 247 247 250 251 249 251 252 249 248 249 250 251 251 251 254 251 250 251 253 253 254 253 253 253 254 256
276 275 273 273 274 273 271 271 270 267 265 263 261 259 257 256 255 251 247 245 248 249 247 247 247 246 245 245 246 249 248 250 248 248 251 252 252 253 253 252 253 253 254 256
270 274 270 270 267 267 265 263 261 260 260 259 258 256 255 253 252 248 244 247 246 248 249 244 257 247 246 246 247 249 250 248 247 248 251 251 251 251 251 251 251 252 253 254
261 261 263 260 258 257 257 256 256 255 253 254 253 252 249 244 245 245 242 247 246 248 244 243 243 245 245 246 251 249 247 248 250 249 249 249 250 252 251 251 251 252 252 252
255 257 258 257 254 253 253 253 254 253 251 252 253 251 249 242 241 243 249 251 249 244 244 248 245 247 246 248 248 245 245 246 248 250 248 249 249 250 252 251 252 253 254 253
250 252 254 253 252 249 248 250 251 250 250 250 249 248 247 247 244 244 246 251 249 251 248 247 247 248 248 252 249 248 248 250 250 253 252 253 252 253 254 254 254 254 254 253
249 250 252 251 250 247 248 248 250 250 249 249 249 248 251 253 253 254 252 248 247 249 249 249 251 255 257 253 251 251 251 251 251 254 255 255 255 255 255 254 254 254 253 251
245 247 246 246 246 249 249 246 246 246 247 249 250 252 254 254 252 249 249 250 251 251 248 250 253 262 256 249 249 249 249 250 254 255 255 256 255 255 254 253 253 252 250 250
246 245 245 247 249 249 247 246 251 252 253 252 251 251 251 252 251 250 247 250 252 251 250 252 259 259 249 247 248 249 251 253 254 254 255 254 254 253 253 252 251 250 250 250
246 247 248 249 251 252 252 253 252 253 254 253 251 249 246 247 249 249 249 250 249 251 249 249 248 249 249 249 249 250 252 253 254 254 254 254 253 253 252 251 250 250 250 249
250 252 251 251 251 249 249 249 249 249 249 247 247 245 245 246 246 249 249 249 249 249 249 247 250 251 249 250 251 252 253 253 254 254 253 253 253 252 252 251 251 251 250 249

GFSNGP_sfc_thetae_036.txt.gz
Theta_e
292 291 290 289 289 288 287 289 288 291 290 292 292 292 293 294 292 290 290 290 290 290 291 290 289 287 286 286 285 285 284 284 284 285 284 282 281 279 278 277 277 276 276 275
287 291 288 286 289 288 289 290 291 291 289 296 295 293 291 290 289 289 290 290 290 290 290 290 289 288 287 286 285 285 284 284 285 284 282 280 278 277 276 275 274 274 273 273
284 289 284 281 286 288 289 291 290 287 291 290 289 290 292 292 290 290 291 291 290 290 290 290 289 288 287 286 286 284 283 283 282 282 279 278 277 275 274 274 273 273 272 272
283 281 276 285 283 291 288 289 289 288 288 290 290 290 290 291 291 290 290 290 290 290 290 289 288 287 287 286 284 282 283 282 281 279 278 276 274 274 273 273 272 272 272 271
278 278 283 278 280 285 285 287 288 289 287 285 282 285 286 286 287 290 289 289 289 291 290 288 286 286 283 282 282 282 281 281 279 278 276 274 273 273 273 272 271 271 271 270
278 279 278 283 280 283 286 282 284 289 286 282 282 284 289 284 285 286 286 286 286 286 286 286 285 283 281 281 280 280 281 280 279 277 275 273 273 272 272 271 270 270 270 269
278 279 281 286 280 281 279 284 283 287 285 281 283 287 285 284 283 285 285 284 283 283 283 283 282 280 280 280 279 281 280 278 276 275 273 273 271 271 270 269 268 267 267 268
279 278 277 280 279 281 285 281 283 282 282 282 282 281 282 282 282 281 282 281 283 282 281 282 281 280 280 279 281 278 277 275 273 271 272 270 268 268 267 267 266 266 266 267
282 282 280 282 282 283 283 284 281 283 282 283 281 280 281 280 281 281 281 281 281 281 280 280 279 279 279 281 277 274 273 272 270 269 269 268 267 267 267 267 267 268 267 268
280 279 279 281 281 282 282 282 283 284 283 283 282 281 280 281 281 281 280 280 279 278 278 278 278 277 279 276 274 271 271 269 268 267 267 266 268 268 268 268 268 268 267 267
276 276 278 280 281 283 282 282 281 281 281 281 281 280 281 280 280 280 280 279 277 278 278 279 278 277 276 273 271 271 270 269 269 268 266 268 267 269 268 269 268 267 267 267
277 279 280 281 283 282 281 281 281 281 279 280 281 281 280 279 280 279 279 278 276 276 276 278 276 275 271 270 270 270 269 269 269 269 268 268 268 268 269 270 271 272 273 273
280 282 281 282 283 283 282 281 281 281 281 280 279 280 279 279 278 278 277 276 276 276 275 274 272 271 268 267 268 268 271 269 268 267 268 267 266 266 266 267 268 269 270 271
281 280 278 280 280 281 281 281 280 278 279 279 279 277 277 276 274 275 274 273 272 271 268 268 267 266 266 266 266 266 267 265 268 268 267 267 266 265 264 263 263 264 265 265
279 281 281 281 280 279 278 277 276 276 276 275 275 276 274 274 273 272 268 266 266 265 264 265 264 262 262 262 262 263 264 265 265 265 264 264 263 263 262 262 262 261 262 263
279 278 276 277 278 276 276 274 276 277 276 275 274 272 273 272 268 263 262 263 267 267 261 261 262 260 259 259 260 261 261 260 261 263 262 262 262 261 261 261 260 260 260 261
274 274 271 274 275 276 275 278 278 279 276 274 274 270 266 262 260 258 256 256 259 259 259 260 258 255 256 257 259 262 262 261 259 260 260 260 260 260 260 260 259 260 260 261
280 281 279 280 279 278 275 275 275 274 272 272 267 265 262 261 264 258 255 254 255 255 256 255 254 253 253 255 256 259 259 259 259 258 259 259 259 259 259 258 258 258 259 260
270 274 274 274 273 272 271 270 268 267 265 264 263 262 261 260 259 255 253 255 257 258 256 253 259 254 256 254 255 257 258 258 258 257 257 256 256 257 257 257 258 258 258 258
263 265 266 264 262 263 263 261 261 259 259 259 257 257 255 253 253 252 254 258 257 257 253 254 253 256 255 254 258 258 258 258 257 257 257 257 257 257 257 256 256 257 257 257
257 259 260 259 257 256 256 258 258 257 256 257 258 255 253 250 251 252 255 259 255 252 253 253 255 258 257 257 256 258 257 257 257 257 256 256 256 256 256 256 257 257 257 257
254 255 256 255 254 252 252 254 255 254 255 254 252 251 251 251 250 252 252 257 256 254 256 257 258 256 257 255 258 258 257 257 257 257 257 257 257 257 257 257 257 258 258 258
252 254 254 253 252 251 252 252 253 254 253 253 253 254 257 257 257 258 257 255 256 256 257 258 257 258 259 260 260 259 258 257 257 257 257 257 257 257 257 257 258 258 257 257
251 251 250 251 251 253 252 251 252 252 252 253 254 255 257 256 256 256 256 255 254 255 257 257 258 261 258 258 258 258 257 257 257 257 257 256 257 257 257 257 257 257 256 255
250 250 251 252 253 252 251 252 252 253 253 254 254 255 256 256 258 256 255 255 254 256 257 256 259 260 257 257 257 257 257 257 257 257 257 256 256 256 256 256 255 255 255 254
252 252 252 252 254 255 255 256 255 256 256 255 254 255 254 254 255 255 255 254 255 255 256 257 256 256 257 257 256 256 256 257 256 256 256 256 256 255 255 255 255 255 254 254
254 254 255 254 254 255 255 255 256 255 254 255 255 254 254 254 254 254 254 255 256 256 256 256 256 256 256 256 256 256 256 256 256 256 256 256 255 255 255 255 254 254 254 253

GFSNGP_sfc_thetae_042.txt.gz
Theta_e
292 294 292 287 286 288 287 289 286 288 289 293 292 290 292 292 292 291 290 290 289 288 287 286 285 285 284 284 284 284 283 282 282 281 281 281 280 279 278 278 277 277 276 275
288 291 291 289 291 289 288 289 290 290 289 294 296 294 290 292 292 291 290 290 290 290 288 287 285 285 285 284 283 284 282 282 281 282 281 280 279 278 277 277 276 275 275 274
285 288 288 284 289 291 291 290 290 286 291 294 293 291 290 291 291 291 291 291 290 290 289 289 287 286 285 284 283 282 281 280 281 282 281 279 278 277 276 275 275 274 273 273
285 286 279 287 294 294 292 294 293 292 287 288 292 292 292 292 292 291 291 291 291 290 290 290 289 287 286 284 282 282 282 281 281 281 279 277 277 276 275 274 273 273 272 273
283 284 287 288 282 286 287 289 295 293 292 288 288 290 288 290 292 291 292 292 292 292 292 291 289 288 286 284 282 282 281 281 281 280 278 277 276 274 274 273 272 271 272 270
283 282 280 280 281 286 290 284 290 293 293 286 289 286 288 288 290 292 292 291 290 289 288 288 286 286 284 282 282 281 281 282 281 280 279 277 276 273 272 271 273 273 272 270
284 282 283 281 279 285 282 282 280 284 286 286 289 289 290 287 287 286 286 286 285 285 285 284 283 282 281 280 281 281 279 279 279 279 279 277 273 271 272 269 272 269 269 268
283 281 280 281 281 283 283 281 283 284 285 285 283 283 283 283 283 282 281 282 282 282 282 282 281 281 279 280 280 278 278 277 276 275 275 274 272 268 269 269 266 265 264 265
285 283 281 281 281 283 283 283 284 286 285 283 281 280 281 280 280 280 280 280 280 280 279 279 278 279 279 278 277 276 275 273 269 270 271 271 270 268 266 266 267 266 267 266
282 281 280 282 284 283 281 281 282 284 284 282 280 279 279 279 278 279 278 278 276 277 276 275 274 276 274 276 274 273 270 270 269 270 268 268 269 268 268 266 266 266 267 267
276 278 281 283 283 284 285 281 280 281 281 282 280 279 279 279 278 278 278 276 276 276 275 275 273 272 271 273 273 272 271 269 269 268 267 266 267 268 268 266 268 263 264 264
279 281 283 284 286 286 285 282 280 280 279 280 280 279 279 279 279 278 277 275 274 273 272 271 271 271 270 271 271 271 269 269 268 267 265 266 265 264 274 274 275 276 277 269
281 282 285 284 286 285 282 281 281 280 280 280 279 279 278 278 278 277 275 275 274 274 272 271 270 268 264 265 267 266 266 267 267 267 266 264 263 263 262 267 276 276 277 277
281 281 278 279 280 282 282 281 280 278 279 279 278 275 275 275 274 274 273 271 272 270 267 267 265 262 260 260 263 263 263 265 265 263 263 262 261 262 261 260 258 260 268 271
280 279 279 279 278 278 278 277 275 276 275 275 273 275 273 273 272 272 269 267 267 264 263 263 261 257 257 258 261 261 263 262 262 262 260 261 260 259 258 258 257 256 256 263
277 276 275 276 276 275 274 273 274 274 273 272 271 271 271 271 269 265 263 262 264 262 258 260 257 255 255 257 258 258 259 261 260 260 259 258 258 257 257 256 256 256 255 257
273 273 272 272 274 274 273 274 274 274 272 271 271 269 268 265 262 260 257 258 259 258 256 257 254 252 252 255 258 259 257 255 258 256 254 254 254 254 256 255 256 253 254 257
266 269 271 271 273 274 273 272 271 270 269 268 268 267 265 263 264 257 255 255 255 254 253 251 250 250 250 251 255 255 256 254 252 251 253 254 253 255 254 253 252 252 254 255
262 263 265 266 264 266 265 264 263 263 263 262 265 262 261 260 258 255 254 254 254 253 251 250 262 252 251 253 254 255 254 253 252 252 253 255 254 251 251 251 251 250 251 253
258 260 260 259 258 257 258 258 258 258 257 257 258 257 254 252 253 254 252 249 247 250 250 249 251 250 250 254 258 253 252 253 255 254 253 252 252 251 251 251 250 250 248 249
255 256 256 256 255 254 254 255 255 255 254 255 256 253 252 249 251 252 253 253 248 249 249 252 253 253 252 252 254 253 254 255 255 253 250 251 250 249 250 248 248 251 251 252
253 253 254 254 253 252 252 252 253 254 253 252 252 252 252 250 251 251 250 252 251 254 252 253 252 254 254 260 258 258 256 254 253 252 251 249 248 249 249 249 250 251 252 252
252 252 252 252 251 249 251 253 252 253 253 252 253 253 255 255 255 254 253 252 252 254 254 255 258 260 260 256 255 253 253 252 252 251 250 249 250 250 249 251 251 252 252 252
248 250 249 249 250 253 252 251 253 253 254 254 253 253 254 253 253 254 255 255 256 257 256 257 258 262 259 252 252 252 251 250 251 250 250 253 248 248 248 250 252 251 251 252
250 251 252 252 252 251 249 250 252 255 254 253 254 254 253 254 254 254 255 257 259 258 258 259 261 261 254 251 250 250 250 249 249 247 248 248 247 248 249 250 251 252 251 252
252 252 252 253 253 253 253 253 252 252 252 251 253 254 254 256 257 257 256 256 255 257 255 254 254 253 252 252 250 250 251 251 252 251 250 250 251 253 253 254 254 255 255 255
254 255 253 253 254 254 253 254 252 251 251 251 252 252 254 254 255 256 256 257 257 256 254 253 253 253 250 250 250 251 251 251 253 252 250 250 252 255 256 255 256 256 256 255

GFSNGP_sfc_thetae_045.txt.gz
Theta_e
292 291 289 287 286 288 287 289 286 289 289 293 294 290 291 290 289 288 288 288 287 287 286 285 284 284 284 283 283 283 282 282 281 281 280 279 279 279 278 278 277 276 276 276
288 291 290 288 288 288 289 290 290 291 290 294 295 293 290 291 290 289 289 289 289 288 287 285 285 284 284 284 283 283 282 282 282 281 281 280 280 279 278 277 277 276 275 274
285 289 287 284 289 291 290 290 290 286 292 293 294 294 290 290 291 291 291 290 289 288 287 286 285 285 284 284 284 283 282 282 282 282 281 280 280 279 277 277 275 274 274 274
285 286 279 288 293 295 293 294 293 291 293 290 293 295 292 291 291 291 291 290 290 290 289 287 286 285 286 284 283 283 282 282 282 282 281 279 278 278 277 276 274 274 273 273
283 284 286 288 284 288 289 290 296 295 296 296 289 287 288 290 291 293 291 292 292 291 290 289 286 285 285 283 283 282 282 281 281 282 281 279 278 277 276 275 273 273 272 271
283 282 280 284 283 285 291 286 292 295 295 295 289 287 293 289 289 290 292 291 291 290 289 289 288 286 284 283 281 281 282 282 282 282 281 279 279 276 273 274 274 273 273 271
285 284 284 282 280 285 284 284 279 282 290 287 289 294 291 289 289 288 288 288 288 289 290 289 286 285 283 281 281 282 281 281 280 280 280 279 277 274 271 272 272 270 271 271
284 282 281 285 283 285 284 281 282 284 284 286 284 283 284 285 284 284 285 285 284 285 284 282 283 284 281 281 281 279 278 278 277 277 277 275 274 269 270 271 271 270 268 267
285 284 285 283 285 284 283 282 284 285 284 283 282 281 281 281 281 283 283 282 282 283 281 280 278 282 280 278 277 276 275 274 273 271 273 272 271 270 269 270 270 269 268 268
283 283 280 281 283 283 282 281 282 285 283 282 281 280 280 279 279 279 279 279 276 278 277 275 273 275 274 275 274 273 272 269 269 271 269 268 272 271 270 269 268 267 266 266
280 279 281 284 283 285 285 282 282 282 282 282 280 279 279 279 278 278 278 276 276 276 274 274 272 270 269 271 272 271 270 269 269 268 268 267 267 266 268 265 268 262 261 262
281 283 285 285 286 286 285 284 281 281 280 280 280 279 279 278 278 278 277 273 273 271 272 269 270 268 268 270 272 272 270 269 268 267 265 266 265 264 273 273 275 276 276 268
284 284 285 284 285 286 286 282 281 280 281 280 279 278 278 277 276 276 274 273 273 273 272 272 270 266 262 264 268 268 268 267 266 266 265 264 263 263 262 266 276 278 278 278
281 282 281 280 281 283 283 281 280 278 278 278 278 275 275 276 273 275 274 272 272 271 268 268 265 261 259 259 262 261 262 266 266 265 265 263 262 261 261 260 260 262 269 270
279 279 280 279 279 278 278 277 275 276 275 275 273 274 274 274 273 272 268 267 268 266 264 263 261 257 257 260 264 263 264 263 262 261 261 261 261 260 259 259 260 258 255 262
276 275 276 276 276 275 274 273 274 274 273 271 271 271 271 271 268 264 263 262 266 264 259 261 259 257 255 259 260 260 260 261 260 259 258 258 259 258 259 258 255 253 253 254
270 270 270 271 273 273 273 273 273 273 272 271 271 269 268 266 263 260 258 258 259 258 257 258 257 252 253 257 259 258 257 257 258 256 256 255 256 257 255 252 253 251 252 255
264 267 268 267 268 270 269 268 268 268 267 267 266 266 264 263 263 258 256 256 255 254 253 251 251 251 253 254 256 256 255 254 254 254 254 256 252 253 252 252 251 251 253 254
259 261 263 262 261 263 261 261 261 261 262 261 264 262 260 259 259 256 253 255 253 254 251 249 262 251 252 254 255 255 255 254 254 253 252 252 251 249 250 250 250 249 250 252
256 258 258 257 256 256 256 256 256 257 256 257 257 256 254 252 252 253 251 249 247 249 248 249 250 249 250 255 258 255 255 256 253 250 251 251 251 252 254 252 249 249 247 248
253 255 255 255 254 253 253 253 253 253 252 253 254 252 251 249 251 249 251 252 249 246 247 251 251 253 255 256 255 252 251 251 252 252 254 254 253 250 249 247 247 249 250 249
251 252 253 252 252 252 251 251 252 253 253 252 251 251 252 250 250 250 248 250 250 254 254 255 254 255 254 258 254 253 254 256 255 254 252 251 247 248 249 249 249 250 250 249
250 250 252 251 250 249 251 251 251 251 252 251 251 251 253 252 252 254 253 251 251 255 254 254 256 259 259 257 256 256 255 254 253 254 252 251 252 250 249 249 250 250 249 249
250 251 250 249 249 252 252 249 249 249 249 250 251 251 252 252 253 254 255 255 256 257 254 255 257 264 261 255 255 254 252 252 252 251 252 253 250 248 247 249 250 250 250 250
249 250 250 252 254 253 251 250 252 252 251 251 252 253 254 255 253 252 253 255 259 256 257 259 262 261 255 253 254 254 253 251 250 248 248 247 247 247 248 248 249 250 250 252
252 252 252 253 253 254 254 254 253 253 251 251 252 250 250 251 252 253 254 255 254 256 255 255 255 255 254 254 254 254 253 252 252 251 250 249 249 249 249 250 251 252 252 253
253 253 251 252 253 253 251 251 251 249 247 246 247 247 248 249 251 253 255 254 254 255 255 254 255 256 255 254 254 254 252 252 253 252 250 250 249 250 251 251 251 251 253 255

GFSNGP_sfc_thetae_048.txt.gz
Theta_e
291 290 289 287 286 288 287 289 287 290 289 294 294 291 292 291 289 287 287 286 285 285 285 284 284 284 284 283 283 283 282 281 281 281 281 280 280 279 279 278 278 278 277 276
288 291 288 286 287 289 289 290 290 291 291 294 294 292 290 291 289 288 288 288 287 286 285 284 284 284 284 283 283 283 282 281 281 281 280 280 280 279 279 278 277 277 277 276
285 289 286 284 289 288 288 291 290 287 292 293 294 294 292 291 290 290 290 290 288 287 286 286 285 285 284 284 283 282 282 282 281 281 281 281 280 279 278 278 277 276 276 276
286 286 280 290 295 295 292 292 292 291 293 290 293 296 296 293 291 291 292 291 289 288 288 287 286 285 285 283 282 282 282 282 282 281 281 280 280 279 278 278 277 276 276 275
283 284 287 288 286 288 289 291 296 294 295 296 296 287 293 292 294 295 293 292 291 290 289 288 285 285 284 282 282 282 282 282 282 282 281 280 279 279 279 278 276 276 276 274
283 281 280 286 286 290 292 287 294 295 296 296 292 287 295 296 289 290 291 289 288 287 287 286 285 285 283 282 282 282 282 282 283 283 282 280 281 280 279 278 277 275 275 273
284 284 286 283 281 287 285 286 278 282 285 287 289 294 289 287 287 287 287 287 287 288 287 286 285 284 283 282 282 283 284 284 282 282 282 282 281 279 275 276 274 272 272 271
286 283 281 285 283 287 286 281 283 283 285 287 287 284 284 284 285 285 286 286 286 285 284 284 284 284 282 282 283 281 281 280 280 281 281 281 279 273 272 273 272 270 269 268
285 285 286 285 286 285 284 285 286 286 285 284 283 282 282 282 283 283 284 284 284 285 282 281 282 282 280 279 278 278 279 278 277 277 276 276 275 271 269 270 272 271 271 271
285 285 283 282 283 283 282 283 283 285 284 283 282 281 280 281 281 281 278 280 279 281 279 276 274 277 277 277 276 277 275 274 272 274 271 270 272 272 272 271 271 270 268 268
282 283 282 285 283 284 283 281 281 282 283 282 282 280 280 278 278 278 277 276 278 279 278 275 274 273 272 274 274 273 271 270 270 270 270 268 268 268 269 265 269 263 264 265
282 285 287 286 286 285 285 283 282 282 281 280 281 280 279 278 278 278 277 274 275 273 275 272 272 271 270 271 274 272 270 270 269 270 266 267 266 264 274 273 276 277 275 268
285 285 285 283 285 285 286 283 282 281 281 279 279 278 278 277 277 276 275 275 275 274 273 272 271 269 264 264 268 268 268 267 266 266 266 265 263 265 264 267 277 277 278 279
281 283 283 281 281 284 283 282 280 278 278 278 277 275 275 275 273 274 273 272 272 272 269 267 265 262 259 259 264 261 262 266 266 264 264 263 263 262 262 263 263 261 269 271
277 278 279 279 279 278 278 277 278 277 276 275 273 274 275 274 273 273 270 269 269 267 265 265 263 259 257 259 263 261 263 262 262 262 262 263 262 261 260 259 256 256 257 264
271 275 276 275 275 275 274 273 274 274 273 271 272 272 271 271 269 265 264 263 267 266 260 261 259 256 254 257 259 259 260 262 261 261 260 260 261 260 258 258 256 258 257 256
269 271 270 270 272 272 271 271 272 272 270 270 268 267 268 266 263 261 258 259 260 259 258 258 256 254 254 257 259 259 259 259 259 258 258 257 257 257 257 255 254 252 254 257
263 266 267 266 268 269 267 266 266 266 264 264 264 265 264 262 262 257 254 254 255 254 252 250 249 251 253 253 255 255 256 255 255 254 255 255 254 256 254 253 251 252 253 255
259 260 261 261 261 261 260 260 259 260 260 259 262 259 257 256 256 253 251 254 254 253 251 248 262 253 253 255 254 255 255 254 253 251 254 255 254 251 249 249 251 253 255 255
256 257 257 256 256 255 256 256 256 256 255 256 256 255 253 251 251 252 249 247 245 249 247 247 249 250 250 255 257 254 254 255 256 255 255 255 252 249 252 253 252 250 248 247
253 254 254 254 253 253 252 252 253 253 252 253 254 252 251 247 249 248 251 252 249 246 247 250 250 251 252 254 256 256 253 254 253 253 251 251 251 249 250 248 248 249 249 249
250 251 252 252 252 252 251 251 252 252 252 252 251 251 252 249 249 249 247 250 249 253 251 251 252 255 255 258 255 254 254 254 253 252 251 251 250 250 249 248 248 249 249 247
249 249 251 251 250 248 250 251 251 251 251 251 251 251 252 251 250 252 251 250 249 253 252 252 256 259 259 256 255 254 255 255 256 256 255 254 254 253 251 251 249 248 247 248
249 250 248 247 249 252 251 248 249 249 250 250 250 249 251 252 253 252 253 254 256 256 254 255 257 263 260 256 256 256 256 255 255 254 253 255 253 249 248 249 250 248 248 249
249 248 249 251 253 251 248 247 250 250 251 251 251 251 252 252 250 250 250 251 258 253 253 257 263 262 255 254 255 256 256 255 253 251 253 253 252 250 249 248 248 248 248 248
250 250 251 251 251 251 251 252 251 251 250 251 251 251 252 252 253 253 253 254 253 255 252 252 252 252 253 254 253 253 254 254 254 254 253 253 252 250 248 249 249 249 249 249
251 251 250 251 251 250 249 249 248 247 247 246 248 248 249 250 252 253 253 252 251 251 251 251 252 254 253 254 254 254 254 254 255 254 253 252 252 250 249 250 250 250 250 250